User: anonymous   Login
Location: Unspecified
(0.0000°N, 0.0000°E)
Time: 05:35:37
(UTC+02:00)
Language:

Iridium 4 Rocket - Orbit

View from above orbital plane
View from above orbital plane
View from above satellite
View from above satellite

Ground track
Ground track

The orbit data is extracted from the following two-line orbital elements,

1 24797U 97020F   16270.73300947  .00000230  00000-0  42874-4 0  9990
2 24797  86.8909  89.8745 0227667 115.4422 303.1508 14.43906139 19922
Epoch (UTC): 26 September 2016 17:35:32
Eccentricity: 0.0227667
inclination: 86.8909°
perigee height: 583 km
apogee height: 908 km
right ascension of ascending node: 89.8745°
argument of perigee: 115.4422°
revolutions per day: 14.43906139
mean anomaly at epoch: 303.1508°
orbit number at epoch: 1992

The dashed part of the orbit path shows where the satellite is in the earth's shadow,  

DLR